FW0810 Weather Reports


Display with metric or nautical units.
time (UTC)temp
F
wind
direction
speed
MPH
gust
MPH
rain 1hr
in
rain 24hr
in
rain mn
in
humidity
%
barometer
mb
20260904233315 69 270 0.0 1.0 0.00 0.00 0.00 73 1022.6
20260904232313 69 269 0.0 0.0 0.00 0.00 0.00 73 1022.7
20260904230806 70 274 0.0 2.0 0.00 0.00 0.00 71 1022.8
20260904230318 70 274 0.0 2.0 0.00 0.00 0.00 71 1022.9
20260904225805 71 272 0.0 0.0 0.00 0.00 0.00 70 1023.0
20260904225306 71 272 0.0 0.0 0.00 0.00 0.00 69 1023.0
20260904224301 71 272 0.0 0.0 0.00 0.00 0.00 68 1022.8
20260904223802 72 272 0.0 0.0 0.00 0.00 0.00 68 1022.8
20260904223303 72 271 0.0 0.0 0.00 0.00 0.00 68 1022.8
20260904222801 72 271 0.0 3.0 0.00 0.00 0.00 68 1022.8
20260904222254 72 271 0.0 3.0 0.00 0.00 0.00 68 1022.8
20260904221749 72 273 0.0 1.0 0.00 0.00 0.00 67 1022.9
20260904220740 72 283 0.0 4.0 0.00 0.00 0.00 66 1022.8
20260904220231 73 274 0.0 4.0 0.00 0.00 0.00 65 1022.7
20260904215728 73 269 0.0 0.0 0.00 0.00 0.00 65 1022.8
20260904215218 73 269 0.0 2.0 0.00 0.00 0.00 65 1022.7
20260904214713 73 269 0.0 2.0 0.00 0.00 0.00 65 1022.7
20260904214206 73 271 0.0 0.0 0.00 0.00 0.00 65 1022.7
20260904213700 73 271 0.0 3.0 0.00 0.00 0.00 65 1022.5
20260904213156 74 271 0.0 3.0 0.00 0.00 0.00 64 1022.6
20260904212649 74 269 0.0 2.0 0.00 0.00 0.00 64 1022.5
20260904212145 74 276 0.0 0.0 0.00 0.00 0.00 63 1022.5
20260904211640 74 276 0.0 2.0 0.00 0.00 0.00 63 1022.5
20260904211131 74 278 0.0 2.0 0.00 0.00 0.00 62 1022.5
20260904210640 75 275 0.0 2.0 0.00 0.00 0.00 62 1022.5
20260904210121 75 285 0.0 2.0 0.00 0.00 0.00 61 1022.5
20260904205618 76 276 0.0 0.0 0.00 0.00 0.00 60 1022.5
20260904205118 76 276 0.0 0.0 0.00 0.00 0.00 60 1022.5
20260904204616 76 276 0.0 0.0 0.00 0.00 0.00 59 1022.5
20260904204113 76 276 0.0 0.0 0.00 0.00 0.00 59 1022.5
20260904203113 76 276 0.0 0.0 0.00 0.00 0.00 59 1022.5
20260904202614 76 276 0.0 1.0 0.00 0.00 0.00 59 1022.4
20260904201612 77 282 0.0 2.0 0.00 0.00 0.00 58 1022.4
20260904200610 78 271 0.0 2.0 0.00 0.00 0.00 56 1022.3
20260904195609 78 271 0.0 3.0 0.00 0.00 0.00 56 1022.3
20260904195105 77 274 0.0 3.0 0.00 0.00 0.00 56 1022.3
20260904194101 78 278 0.0 2.0 0.00 0.00 0.00 55 1022.3
20260904193100 78 276 0.0 2.0 0.00 0.00 0.00 54 1022.2
20260904192559 79 276 0.0 2.0 0.00 0.00 0.00 54 1022.2
20260904191549 80 274 0.0 2.0 0.00 0.00 0.00 52 1022.0
20260904191041 80 274 0.0 2.0 0.00 0.00 0.00 51 1021.9
20260904190536 81 271 0.0 1.0 0.00 0.00 0.00 49 1021.9
20260904190032 82 274 0.0 1.0 0.00 0.00 0.00 48 1021.8
20260904185523 83 273 0.0 0.0 0.00 0.00 0.00 47 1021.8
20260904185017 84 273 0.0 0.0 0.00 0.00 0.00 47 1021.7
20260904184512 84 273 0.0 0.0 0.00 0.00 0.00 46 1021.6
20260904183501 85 277 0.0 1.0 0.00 0.00 0.00 45 1021.5
20260904182957 85 278 0.0 1.0 0.00 0.00 0.00 45 1021.4
20260904181941 86 294 0.0 0.0 0.00 0.00 0.00 42 1021.4
20260904181435 87 301 0.0 0.0 0.00 0.00 0.00 41 1021.4
20260904180931 87 308 0.0 0.0 0.00 0.00 0.00 41 1021.3
20260904180422 87 314 0.0 0.0 0.00 0.00 0.00 40 1021.1
20260904175917 87 275 0.0 0.0 0.00 0.00 0.00 39 1021.1
20260904175413 88 273 0.0 0.0 0.00 0.00 0.00 37 1021.1
20260904174903 89 273 0.0 0.0 0.00 0.00 0.00 36 1021.0
20260904174359 89 273 0.0 0.0 0.00 0.00 0.00 35 1020.9
20260904173852 90 273 0.0 0.0 0.00 0.00 0.00 33 1020.9
20260904173345 91 272 0.0 0.0 0.00 0.00 0.00 32 1020.9
20260904172839 92 271 0.0 0.0 0.00 0.00 0.00 31 1020.8
20260904172349 94 271 0.0 0.0 0.00 0.00 0.00 29 1020.8
20260904171828 94 271 0.0 0.0 0.00 0.00 0.00 29 1020.8
20260904171321 95 271 0.0 0.0 0.00 0.00 0.00 27 1020.8
20260904170816 96 271 0.0 0.0 0.00 0.00 0.00 27 1020.8
20260904170309 96 272 0.0 0.0 0.00 0.00 0.00 26 1020.9
20260904165803 96 271 0.0 0.0 0.00 0.00 0.00 26 1020.9
20260904165259 97 271 0.0 1.0 0.00 0.00 0.00 25 1020.9
20260904164751 97 271 0.0 1.0 0.00 0.00 0.00 25 1020.8
20260904164245 97 268 0.0 1.0 0.00 0.00 0.00 26 1020.9
20260904163745 97 265 0.0 4.0 0.00 0.00 0.00 25 1020.9
20260904163245 97 283 0.0 4.0 0.00 0.00 0.00 25 1020.8
20260904162745 97 288 0.0 5.0 0.00 0.00 0.00 25 1020.8
20260904162245 98 279 0.0 5.0 0.00 0.00 0.00 25 1020.9
20260904161746 98 261 0.0 3.0 0.00 0.00 0.00 25 1020.8
20260904161245 98 290 0.0 4.0 0.00 0.00 0.00 25 1020.8
20260904160743 98 278 0.0 4.0 0.00 0.00 0.00 24 1020.9
20260904160242 98 274 0.0 2.0 0.00 0.00 0.00 25 1020.9
20260904155742 98 274 0.0 4.0 0.00 0.00 0.00 25 1020.9
20260904155239 98 274 0.0 4.0 0.00 0.00 0.00 24 1020.9
20260904154739 98 274 0.0 4.0 0.00 0.00 0.00 25 1021.0
20260904153735 98 251 0.0 3.0 0.00 0.00 0.00 24 1021.0
20260904153236 98 205 0.0 3.0 0.00 0.00 0.00 24 1021.1
20260904152738 98 269 1.0 4.0 0.00 0.00 0.00 22 1021.2
20260904152235 98 274 1.0 6.0 0.00 0.00 0.00 22 1021.2
20260904151233 98 298 1.0 6.0 0.00 0.00 0.00 23 1021.2
20260904150732 98 281 1.0 7.0 0.00 0.00 0.00 23 1021.2
20260904150235 98 340 1.0 7.0 0.00 0.00 0.00 23 1021.2
20260904145733 98 284 0.0 4.0 0.00 0.00 0.00 23 1021.2
20260904145233 98 280 0.0 4.0 0.00 0.00 0.00 23 1021.3
20260904144733 98 289 1.0 7.0 0.00 0.00 0.00 23 1021.2
20260904144234 98 296 1.0 9.0 0.00 0.00 0.00 24 1021.2
20260904143733 98 290 1.0 9.0 0.00 0.00 0.00 24 1021.2
20260904143233 98 279 2.0 9.0 0.00 0.00 0.00 24 1021.3
20260904142730 98 205 1.0 9.0 0.00 0.00 0.00 24 1021.2
20260904142228 98 317 1.0 7.0 0.00 0.00 0.00 24 1021.3
20260904141730 98 269 1.0 7.0 0.00 0.00 0.00 24 1021.3
20260904141231 98 279 0.0 2.0 0.00 0.00 0.00 25 1021.3
20260904140730 98 264 0.0 5.0 0.00 0.00 0.00 25 1021.3
20260904140228 97 308 1.0 6.0 0.00 0.00 0.00 25 1021.3
20260904135730 97 202 1.0 8.0 0.00 0.00 0.00 24 1021.5
20260904135228 97 276 1.0 8.0 0.00 0.00 0.00 25 1021.5
20260904134731 97 299 2.0 10.0 0.00 0.00 0.00 25 1021.6
20260904134229 97 272 1.0 10.0 0.00 0.00 0.00 25 1021.7
20260904133731 97 352 1.0 10.0 0.00 0.00 0.00 26 1021.6
20260904132729 97 271 1.0 8.0 0.00 0.00 0.00 27 1021.7
20260904132229 97 291 1.0 8.0 0.00 0.00 0.00 27 1021.7
20260904131730 98 290 0.0 4.0 0.00 0.00 0.00 27 1021.7
20260904131228 97 328 1.0 6.0 0.00 0.00 0.00 27 1021.7
20260904130239 97 309 1.0 6.0 0.00 0.00 0.00 28 1021.7
20260904125722 97 345 0.0 5.0 0.00 0.00 0.00 29 1021.8
20260904125224 97 320 0.0 5.0 0.00 0.00 0.00 30 1021.8
20260904124223 96 276 1.0 4.0 0.00 0.00 0.00 29 1021.9
20260904122721 96 238 0.0 4.0 0.00 0.00 0.00 30 1021.9
20260904122218 96 139 0.0 5.0 0.00 0.00 0.00 29 1022.0
20260904121720 96 333 0.0 5.0 0.00 0.00 0.00 29 1022.0
20260904121232 96 331 0.0 2.0 0.00 0.00 0.00 27 1022.0
20260904120718 96 124 0.0 1.0 0.00 0.00 0.00 28 1022.2
20260904115717 95 126 0.0 3.0 0.00 0.00 0.00 27 1022.3
20260904115219 95 105 0.0 1.0 0.00 0.00 0.00 28 1022.4
20260904114714 95 179 0.0 1.0 0.00 0.00 0.00 28 1022.5
20260904113710 94 218 0.0 1.0 0.00 0.00 0.00 28 1022.4
20260904113209 94 136 0.0 1.0 0.00 0.00 0.00 28 1022.5
20260904112709 94 133 0.0 1.0 0.00 0.00 0.00 28 1022.6
20260904112205 94 132 0.0 2.0 0.00 0.00 0.00 29 1022.7
20260904111203 94 176 0.0 1.0 0.00 0.00 0.00 33 1022.7
20260904105657 92 221 0.0 5.0 0.00 0.00 0.00 33 1022.8
20260904105154 92 273 0.0 5.0 0.00 0.00 0.00 32 1022.8
20260904104654 92 137 0.0 2.0 0.00 0.00 0.00 31 1022.9
20260904104154 91 138 0.0 3.0 0.00 0.00 0.00 31 1022.8
20260904103656 92 132 0.0 3.0 0.00 0.00 0.00 33 1022.9
20260904103156 91 113 0.0 3.0 0.00 0.00 0.00 34 1022.9
20260904102653 91 114 0.0 3.0 0.00 0.00 0.00 32 1022.9
20260904102152 91 138 0.0 4.0 0.00 0.00 0.00 33 1022.9
20260904101648 91 141 0.0 4.0 0.00 0.00 0.00 33 1023.0
20260904101147 91 131 0.0 4.0 0.00 0.00 0.00 33 1023.1
20260904100143 90 116 0.0 5.0 0.00 0.00 0.00 34 1023.1
20260904095644 89 106 0.0 3.0 0.00 0.00 0.00 35 1023.1
20260904095142 89 107 0.0 3.0 0.00 0.00 0.00 35 1023.2
20260904094140 88 105 0.0 3.0 0.00 0.00 0.00 37 1023.2
20260904093131 87 140 0.0 4.0 0.00 0.00 0.00 38 1023.4
20260904092626 87 117 0.0 4.0 0.00 0.00 0.00 37 1023.4
20260904092128 87 114 1.0 4.0 0.00 0.00 0.00 38 1023.4
20260904091625 87 125 0.0 5.0 0.00 0.00 0.00 41 1023.4
20260904091125 87 73 0.0 5.0 0.00 0.00 0.00 40 1023.5
20260904090624 87 91 0.0 3.0 0.00 0.00 0.00 42 1023.5
20260904090125 86 91 0.0 3.0 0.00 0.00 0.00 40 1023.5
20260904085625 86 86 0.0 2.0 0.00 0.00 0.00 44 1023.4
20260904084125 84 84 0.0 4.0 0.00 0.00 0.00 49 1023.4
20260904083625 84 98 0.0 4.0 0.00 0.00 0.00 52 1023.3
20260904083124 84 97 0.0 3.0 0.00 0.00 0.00 53 1023.4
20260904082122 83 111 0.0 3.0 0.00 0.00 0.00 56 1023.3
20260904081623 83 105 0.0 1.0 0.00 0.00 0.00 56 1023.3
20260904080622 82 125 0.0 1.0 0.00 0.00 0.00 59 1023.3
20260904080120 82 126 0.0 1.0 0.00 0.00 0.00 60 1023.2
20260904075616 81 143 0.0 0.0 0.00 0.00 0.00 62 1023.2
20260904075110 80 143 0.0 1.0 0.00 0.00 0.00 62 1023.1
20260904074603 79 143 0.0 1.0 0.00 0.00 0.00 63 1023.2
20260904074056 79 143 0.0 1.0 0.00 0.00 0.00 65 1023.2
20260904073552 78 143 0.0 1.0 0.00 0.00 0.00 64 1023.1
20260904073044 78 145 0.0 1.0 0.00 0.00 0.00 65 1023.2
20260904072539 78 146 0.0 4.0 0.00 0.00 0.00 67 1023.2
20260904072033 77 148 0.0 4.0 0.00 0.00 0.00 67 1023.2
20260904071528 76 255 0.0 0.0 0.00 0.00 0.00 68 1023.2
20260904071022 76 259 0.0 0.0 0.00 0.00 0.00 69 1023.2
20260904070521 75 259 0.0 0.0 0.00 0.00 0.00 70 1023.3
20260904070025 74 259 0.0 0.0 0.00 0.00 0.00 71 1023.2
20260904065519 74 260 0.0 0.0 0.00 0.00 0.00 73 1023.2
20260904065019 73 260 0.0 0.0 0.00 0.00 0.00 74 1023.2
20260904064017 70 261 0.0 0.0 0.00 0.00 0.00 77 1023.2
20260904063515 70 261 0.0 0.0 0.00 0.00 0.00 78 1023.2
20260904063019 69 261 0.0 0.0 0.00 0.00 0.00 80 1023.3
20260904062517 69 261 0.0 0.0 0.00 0.00 0.00 80 1023.2
20260904062016 68 261 0.0 0.0 0.00 0.00 0.00 81 1023.3
20260904061512 67 262 0.0 0.0 0.00 0.00 0.00 83 1023.2
20260904061013 66 274 0.0 0.0 0.00 0.00 0.00 84 1023.2
20260904060513 65 274 0.0 0.0 0.00 0.00 0.00 85 1023.1
20260904060009 65 274 0.0 0.0 0.00 0.00 0.00 85 1023.2
20260904055006 64 273 0.0 0.0 0.00 0.00 0.00 86 1023.2
20260904054505 64 273 0.0 0.0 0.00 0.00 0.00 86 1023.2
20260904054002 63 273 0.0 0.0 0.00 0.00 0.00 86 1023.2
20260904053500 63 274 0.0 0.0 0.00 0.00 0.00 87 1023.1
20260904053001 63 274 0.0 0.0 0.00 0.00 0.00 87 1023.1
20260904052459 63 274 0.0 2.0 0.00 0.00 0.00 87 1023.1
20260904052000 63 274 1.0 4.0 0.00 0.00 0.00 86 1023.1
20260904051500 63 272 0.0 4.0 0.00 0.00 0.00 86 1022.9
20260904051000 62 273 0.0 2.0 0.00 0.00 0.00 86 1023.0
20260904050501 62 265 0.0 2.0 0.00 0.00 0.00 86 1022.9
20260904050000 62 264 0.0 1.0 0.00 0.00 0.00 86 1022.9
20260904045501 62 270 0.0 0.0 0.00 0.00 0.00 86 1022.8
20260904044956 62 271 0.0 4.0 0.00 0.00 0.00 85 1022.7
20260904044457 63 271 0.0 4.0 0.00 0.00 0.00 85 1022.7
20260904043957 63 278 0.0 0.0 0.00 0.00 0.00 85 1022.7
20260904043456 63 278 0.0 0.0 0.00 0.00 0.00 85 1022.6
20260904041957 63 276 0.0 3.0 0.00 0.00 0.00 85 1022.6
20260904041459 63 279 0.0 3.0 0.00 0.00 0.00 85 1022.5
20260904040958 63 279 0.0 3.0 0.00 0.00 0.00 85 1022.5
20260904040456 63 273 0.0 3.0 0.00 0.00 0.00 85 1022.4
20260904035956 63 285 0.0 3.0 0.00 0.00 0.00 85 1022.5
20260904035456 63 285 0.0 3.0 0.00 0.00 0.00 84 1022.5
20260904034958 63 274 0.0 0.0 0.00 0.00 0.00 84 1022.5
20260904034457 63 274 0.0 0.0 0.00 0.00 0.00 84 1022.5
20260904033956 63 274 0.0 0.0 0.00 0.00 0.00 84 1022.5
20260904033456 63 274 0.0 1.0 0.00 0.00 0.00 84 1022.5
20260904032455 63 273 0.0 0.0 0.00 0.00 0.00 84 1022.3
20260904031951 63 271 0.0 0.0 0.00 0.00 0.00 84 1022.3
20260904031443 63 273 0.0 3.0 0.00 0.00 0.00 84 1022.4
20260904030937 63 269 1.0 4.0 0.00 0.00 0.00 83 1022.4
20260904030431 64 273 1.0 5.0 0.00 0.00 0.00 83 1022.4
20260904025924 64 282 2.0 6.0 0.00 0.00 0.00 82 1022.3
20260904025418 64 265 2.0 6.0 0.00 0.00 0.00 82 1022.4
20260904024914 64 274 1.0 6.0 0.00 0.00 0.00 81 1022.4
20260904024416 65 272 1.0 6.0 0.00 0.00 0.00 81 1022.4
20260904023912 65 268 2.0 6.0 0.00 0.00 0.00 81 1022.3
20260904022909 65 266 0.0 2.0 0.00 0.00 0.00 80 1022.5
20260904022409 66 273 0.0 3.0 0.00 0.00 0.00 80 1022.5
20260904021908 65 272 0.0 4.0 0.00 0.00 0.00 80 1022.6
20260904021409 65 274 0.0 4.0 0.00 0.00 0.00 80 1022.5
20260904020407 65 269 1.0 5.0 0.00 0.00 0.00 80 1022.5
20260904015905 65 261 2.0 6.0 0.00 0.00 0.00 80 1022.5
20260904015418 65 282 2.0 6.0 0.00 0.00 0.00 80 1022.5
20260904014903 65 273 0.0 6.0 0.00 0.00 0.00 79 1022.5
20260904013900 66 272 1.0 4.0 0.00 0.00 0.00 78 1022.6
20260904013357 66 270 0.0 3.0 0.00 0.00 0.00 78 1022.5
20260904012856 66 270 0.0 3.0 0.00 0.00 0.00 78 1022.6
20260904011854 66 274 1.0 5.0 0.00 0.00 0.00 79 1022.5
20260904011346 66 274 0.0 5.0 0.00 0.00 0.00 78 1022.5
20260904010841 66 266 0.0 1.0 0.00 0.00 0.00 78 1022.5
20260904010338 66 272 0.0 0.0 0.00 0.00 0.00 78 1022.4
20260904005831 66 270 0.0 1.0 0.00 0.00 0.00 78 1022.5
20260904005324 67 270 1.0 4.0 0.00 0.00 0.00 78 1022.6
20260904004817 67 264 1.0 4.0 0.00 0.00 0.00 78 1022.5
20260904004313 67 275 0.0 4.0 0.00 0.00 0.00 77 1022.5
20260904003259 67 266 1.0 5.0 0.00 0.00 0.00 78 1022.5
20260904002755 67 273 1.0 5.0 0.00 0.00 0.00 78 1022.5
20260904002249 67 274 1.0 5.0 0.00 0.00 0.00 78 1022.4
20260904001742 66 286 2.0 5.0 0.00 0.00 0.00 78 1022.5
20260904001236 66 275 2.0 7.0 0.00 0.00 0.00 77 1022.6
20260904000729 67 279 2.0 7.0 0.00 0.00 0.00 77 1022.5
20260904000226 67 279 1.0 6.0 0.00 0.00 0.00 76 1022.6
20260903235718 68 276 0.0 2.0 0.00 0.00 0.00 76 1022.6
20260903235216 68 272 0.0 4.0 0.00 0.00 0.00 75 1022.5
20260903234705 68 268 0.0 4.0 0.00 0.00 0.00 75 1022.5